Time,TemperatureF,DewpointF,PressureIn,WindDirection,WindDirectionDegrees,WindSpeedMPH,WindSpeedGustMPH,Humidity,HourlyPrecipIn,Conditions,Clouds,dailyrainin,SoftwareType,DateUTC
2013-03-08 00:00:00,31.1,24.7,29.98,NW,316,0.0,14.0,77,0.00,RA,,0.00,WeatherDisplay:10.37,2013-03-08 05:00:00,
2013-03-08 00:01:00,31.1,24.8,29.98,NW,322,1.0,12.0,77,0.00,RA,,0.00,WeatherDisplay:10.37,2013-03-08 05:01:00,
2013-03-08 00:05:00,31.1,25.0,29.98,NNW,341,0.0,7.0,78,0.00,RA,,0.00,WeatherDisplay:10.37,2013-03-08 05:05:00,
2013-03-08 00:10:00,31.0,24.9,29.97,NNW,337,0.0,3.0,78,0.00,CLR,,0.00,WeatherDisplay:10.37,2013-03-08 05:10:00,
2013-03-08 00:15:00,30.9,25.1,29.97,NW,320,0.0,7.0,79,0.00,CLR,,0.00,WeatherDisplay:10.37,2013-03-08 05:15:00,
2013-03-08 00:20:00,30.8,25.1,29.97,WNW,299,0.0,0.0,79,0.00,CLR,,0.00,WeatherDisplay:10.37,2013-03-08 05:20:00,
2013-03-08 00:30:00,30.6,25.2,29.97,WSW,248,0.0,0.0,80,0.01,RA,,0.01,WeatherDisplay:10.37,2013-03-08 05:30:00,
2013-03-08 00:40:00,30.6,25.4,29.98,WSW,250,0.0,0.0,81,0.01,CLR,,0.01,WeatherDisplay:10.37,2013-03-08 05:40:00,
2013-03-08 00:50:00,30.5,25.0,29.98,WSW,253,2.0,9.0,80,0.01,CLR,,0.01,WeatherDisplay:10.37,2013-03-08 05:50:00,
2013-03-08 01:00:00,30.5,25.3,29.98,West,267,0.0,10.0,81,0.01,CLR,,0.01,WeatherDisplay:10.37,2013-03-08 06:00:00,
2013-03-08 01:05:00,30.5,25.0,29.98,West,271,0.0,5.0,80,0.01,CLR,,0.01,WeatherDisplay:10.37,2013-03-08 06:05:00,
2013-03-08 01:10:00,30.5,25.3,29.98,West,279,0.0,3.0,81,0.01,CLR,,0.01,WeatherDisplay:10.37,2013-03-08 06:10:00,
2013-03-08 01:15:00,30.4,25.0,29.98,WNW,292,0.0,12.0,80,0.01,CLR,,0.01,WeatherDisplay:10.37,2013-03-08 06:15:00,
2013-03-08 01:20:00,30.4,25.0,29.97,WNW,299,0.0,0.0,80,0.01,CLR,,0.01,WeatherDisplay:10.37,2013-03-08 06:20:00,
2013-03-08 01:30:00,30.4,25.2,29.97,WNW,299,0.0,0.0,81,0.00,CLR,,0.01,WeatherDisplay:10.37,2013-03-08 06:30:00,
2013-03-08 01:40:00,30.3,25.2,29.97,WNW,298,0.0,8.0,81,0.00,CLR,,0.01,WeatherDisplay:10.37,2013-03-08 06:40:00,
2013-03-08 01:50:00,30.4,24.9,29.96,WNW,289,1.0,9.0,80,0.00,CLR,,0.01,WeatherDisplay:10.37,2013-03-08 06:50:00,
2013-03-08 01:55:00,30.4,24.9,29.96,West,277,0.0,8.0,80,0.00,CLR,,0.01,WeatherDisplay:10.37,2013-03-08 06:55:00,
2013-03-08 02:00:00,30.4,24.9,29.96,West,272,0.0,0.0,80,0.00,CLR,,0.01,WeatherDisplay:10.37,2013-03-08 07:00:00,
2013-03-08 02:05:00,30.4,24.9,29.96,West,267,0.0,0.0,80,0.00,CLR,,0.01,WeatherDisplay:10.37,2013-03-08 07:05:00,
2013-03-08 02:10:00,30.3,24.9,29.95,West,271,0.0,8.0,80,0.00,CLR,,0.01,WeatherDisplay:10.37,2013-03-08 07:10:00,
2013-03-08 02:15:00,30.3,24.9,29.95,WNW,284,0.0,10.0,80,0.00,CLR,,0.01,WeatherDisplay:10.37,2013-03-08 07:15:00,
2013-03-08 02:20:00,30.3,24.9,29.95,WNW,293,0.0,0.0,80,0.00,CLR,,0.01,WeatherDisplay:10.37,2013-03-08 07:20:00,
2013-03-08 02:30:00,30.2,24.8,29.94,West,277,0.0,5.0,80,0.00,CLR,,0.01,WeatherDisplay:10.37,2013-03-08 07:30:00,
2013-03-08 02:40:00,30.1,25.0,29.94,West,267,0.0,5.0,81,0.00,CLR,,0.01,WeatherDisplay:10.37,2013-03-08 07:40:00,
2013-03-08 02:50:00,30.1,25.0,29.94,West,277,0.0,0.0,81,0.00,CLR,,0.01,WeatherDisplay:10.37,2013-03-08 07:50:00,
2013-03-08 03:00:00,30.1,25.0,29.94,West,277,0.0,0.0,81,0.00,CLR,,0.01,WeatherDisplay:10.37,2013-03-08 08:00:00,
2013-03-08 03:05:00,30.2,25.1,29.94,West,277,0.0,0.0,81,0.00,CLR,,0.01,WeatherDisplay:10.37,2013-03-08 08:05:00,
2013-03-08 03:10:00,30.2,25.0,29.94,West,277,0.0,0.0,81,0.00,CLR,,0.01,WeatherDisplay:10.37,2013-03-08 08:10:00,
2013-03-08 03:20:00,30.3,24.9,29.93,West,277,0.0,0.0,80,0.00,CLR,,0.01,WeatherDisplay:10.37,2013-03-08 08:20:00,
2013-03-08 03:25:00,30.4,24.9,29.93,West,277,0.0,0.0,80,0.00,CLR,,0.01,WeatherDisplay:10.37,2013-03-08 08:25:00,
2013-03-08 03:30:00,30.4,24.9,29.93,West,277,0.0,0.0,80,0.00,CLR,,0.01,WeatherDisplay:10.37,2013-03-08 08:30:00,
2013-03-08 03:35:00,30.4,25.0,29.93,West,277,0.0,0.0,80,0.00,CLR,,0.01,WeatherDisplay:10.37,2013-03-08 08:35:00,
2013-03-08 03:40:00,30.5,25.0,29.94,West,277,0.0,0.0,80,0.00,CLR,,0.01,WeatherDisplay:10.37,2013-03-08 08:40:00,
2013-03-08 03:50:00,30.4,25.0,29.93,WSW,253,0.0,5.0,80,0.00,CLR,,0.01,WeatherDisplay:10.37,2013-03-08 08:50:00,
2013-03-08 04:00:00,30.4,25.2,29.93,WSW,247,0.0,0.0,81,0.01,RA,,0.02,WeatherDisplay:10.37,2013-03-08 09:00:00,
2013-03-08 04:05:00,30.3,25.2,29.93,WSW,247,0.0,0.0,81,0.01,RA,,0.02,WeatherDisplay:10.37,2013-03-08 09:05:00,
2013-03-08 04:10:00,30.3,25.2,29.93,WSW,247,0.0,0.0,81,0.01,CLR,,0.02,WeatherDisplay:10.37,2013-03-08 09:10:00,
2013-03-08 04:20:00,30.4,25.5,29.93,WSW,247,0.0,0.0,82,0.01,CLR,,0.02,WeatherDisplay:10.37,2013-03-08 09:20:00,
2013-03-08 04:30:00,30.3,25.4,29.93,WSW,247,0.0,0.0,82,0.01,CLR,,0.02,WeatherDisplay:10.37,2013-03-08 09:30:00,
2013-03-08 04:40:00,30.4,25.2,29.93,West,270,0.0,0.0,81,0.01,CLR,,0.02,WeatherDisplay:10.37,2013-03-08 09:40:00,
2013-03-08 04:50:00,30.4,25.2,29.93,WNW,284,0.0,0.0,81,0.01,CLR,,0.02,WeatherDisplay:10.37,2013-03-08 09:50:00,
2013-03-08 05:00:00,30.3,25.2,29.93,WNW,284,0.0,0.0,81,0.01,RA,,0.03,WeatherDisplay:10.37,2013-03-08 10:00:00,
2013-03-08 05:05:00,30.3,25.5,29.93,WNW,284,0.0,0.0,82,0.01,RA,,0.03,WeatherDisplay:10.37,2013-03-08 10:05:00,
2013-03-08 05:10:00,30.3,25.4,29.93,WNW,284,0.0,2.0,82,0.01,CLR,,0.03,WeatherDisplay:10.37,2013-03-08 10:10:00,
2013-03-08 05:15:00,30.2,25.4,29.93,WNW,284,0.0,0.0,82,0.01,CLR,,0.03,WeatherDisplay:10.37,2013-03-08 10:15:00,
2013-03-08 05:20:00,30.2,25.1,29.92,WNW,284,0.0,5.0,81,0.01,CLR,,0.03,WeatherDisplay:10.37,2013-03-08 10:20:00,
2013-03-08 05:25:00,30.3,25.1,29.92,WNW,284,0.0,0.0,81,0.01,CLR,,0.03,WeatherDisplay:10.37,2013-03-08 10:25:00,
2013-03-08 05:30:00,30.2,25.4,29.92,WNW,284,0.0,0.0,82,0.01,CLR,,0.03,WeatherDisplay:10.37,2013-03-08 10:30:00,
2013-03-08 05:40:00,30.3,25.4,29.92,WNW,295,0.0,0.0,82,0.01,CLR,,0.03,WeatherDisplay:10.37,2013-03-08 10:40:00,
2013-03-08 05:50:00,30.3,25.5,29.93,NNW,347,0.0,0.0,82,0.01,CLR,,0.03,WeatherDisplay:10.37,2013-03-08 10:50:00,
2013-03-08 06:00:00,30.3,25.4,29.93,North,353,0.0,3.0,82,0.00,CLR,,0.03,WeatherDisplay:10.37,2013-03-08 11:00:00,
2013-03-08 06:05:00,30.3,25.4,29.93,NW,322,2.0,10.0,82,0.00,CLR,,0.03,WeatherDisplay:10.37,2013-03-08 11:05:00,
2013-03-08 06:10:00,30.2,25.4,29.93,West,261,0.0,0.0,82,0.00,CLR,,0.03,WeatherDisplay:10.37,2013-03-08 11:10:00,
2013-03-08 06:20:00,30.2,25.4,29.93,WSW,244,0.0,0.0,82,0.01,RA,,0.04,WeatherDisplay:10.37,2013-03-08 11:20:00,
2013-03-08 06:30:00,30.3,25.4,29.93,WSW,244,0.0,0.0,82,0.01,CLR,,0.04,WeatherDisplay:10.37,2013-03-08 11:30:00,
2013-03-08 06:40:00,30.3,25.5,29.93,WSW,244,0.0,0.0,82,0.01,CLR,,0.04,WeatherDisplay:10.37,2013-03-08 11:40:00,
2013-03-08 06:50:00,30.5,25.6,29.94,WSW,244,0.0,0.0,82,0.01,CLR,,0.04,WeatherDisplay:10.37,2013-03-08 11:50:00,
2013-03-08 07:00:00,30.7,25.8,29.94,WSW,244,0.0,0.0,82,0.01,CLR,,0.04,WeatherDisplay:10.37,2013-03-08 12:00:00,
2013-03-08 07:05:00,30.7,25.8,29.94,WSW,244,0.0,0.0,82,0.01,CLR,,0.04,WeatherDisplay:10.37,2013-03-08 12:05:00,
2013-03-08 07:10:00,30.6,25.8,29.94,WSW,244,0.0,0.0,82,0.01,CLR,,0.04,WeatherDisplay:10.37,2013-03-08 12:10:00,
2013-03-08 07:15:00,30.6,25.8,29.94,WSW,244,0.0,0.0,82,0.01,CLR,,0.04,WeatherDisplay:10.37,2013-03-08 12:15:00,
2013-03-08 07:20:00,30.7,25.8,29.94,WSW,244,0.0,0.0,82,0.00,CLR,,0.04,WeatherDisplay:10.37,2013-03-08 12:20:00,
2013-03-08 07:30:00,30.6,25.8,29.95,WSW,244,0.0,0.0,82,0.01,RA,,0.05,WeatherDisplay:10.37,2013-03-08 12:30:00,
2013-03-08 07:40:00,30.5,25.4,29.95,WSW,244,0.0,5.0,81,0.01,CLR,,0.05,WeatherDisplay:10.37,2013-03-08 12:40:00,
2013-03-08 07:50:00,30.5,25.6,29.95,WSW,244,0.0,0.0,82,0.02,RA,,0.06,WeatherDisplay:10.37,2013-03-08 12:50:00,
2013-03-08 08:00:00,30.5,25.7,29.95,WSW,244,0.0,0.0,82,0.02,CLR,,0.06,WeatherDisplay:10.37,2013-03-08 13:00:00,
2013-03-08 08:05:00,30.6,25.7,29.95,WSW,244,0.0,0.0,82,0.02,CLR,,0.06,WeatherDisplay:10.37,2013-03-08 13:05:00,
2013-03-08 08:10:00,30.6,25.5,29.95,WSW,244,0.0,0.0,81,0.02,CLR,,0.06,WeatherDisplay:10.37,2013-03-08 13:10:00,
2013-03-08 08:20:00,30.7,25.6,29.96,WSW,244,0.0,0.0,81,0.02,CLR,,0.06,WeatherDisplay:10.37,2013-03-08 13:20:00,
2013-03-08 08:30:00,31.0,25.8,29.96,WSW,244,0.0,0.0,81,0.01,CLR,,0.06,WeatherDisplay:10.37,2013-03-08 13:30:00,
2013-03-08 08:40:00,31.0,25.6,29.96,WSW,244,0.0,0.0,80,0.01,CLR,,0.06,WeatherDisplay:10.37,2013-03-08 13:40:00,
2013-03-08 08:50:00,31.2,25.7,29.96,WSW,244,0.0,0.0,80,0.00,CLR,,0.06,WeatherDisplay:10.37,2013-03-08 13:50:00,
2013-03-08 09:00:00,31.3,25.9,29.96,WSW,244,0.0,0.0,80,0.00,CLR,,0.06,WeatherDisplay:10.37,2013-03-08 14:00:00,
2013-03-08 09:05:00,31.4,25.9,29.96,WSW,244,0.0,0.0,80,0.00,CLR,,0.06,WeatherDisplay:10.37,2013-03-08 14:05:00,
2013-03-08 09:10:00,31.5,26.0,29.97,WSW,253,0.0,6.0,80,0.00,CLR,,0.06,WeatherDisplay:10.37,2013-03-08 14:10:00,
2013-03-08 09:20:00,31.7,25.9,29.97,North,354,0.0,0.0,79,0.00,CLR,,0.06,WeatherDisplay:10.37,2013-03-08 14:20:00,
2013-03-08 09:30:00,32.1,26.3,29.97,North,354,0.0,0.0,79,0.00,CLR,,0.06,WeatherDisplay:10.37,2013-03-08 14:30:00,
2013-03-08 09:40:00,32.2,26.1,29.97,North,354,0.0,5.0,78,0.00,CLR,,0.06,WeatherDisplay:10.37,2013-03-08 14:40:00,
2013-03-08 09:50:00,32.5,26.4,29.97,North,354,0.0,0.0,78,0.00,CLR,,0.06,WeatherDisplay:10.37,2013-03-08 14:50:00,
2013-03-08 10:00:00,32.9,26.5,29.97,North,354,0.0,0.0,77,0.00,CLR,,0.06,WeatherDisplay:10.37,2013-03-08 15:00:00,
2013-03-08 10:05:00,32.8,26.0,29.96,NW,316,0.0,7.0,76,0.00,CLR,,0.06,WeatherDisplay:10.37,2013-03-08 15:05:00,
2013-03-08 10:15:00,33.1,26.3,29.96,WNW,286,3.0,12.0,76,0.00,CLR,,0.06,WeatherDisplay:10.37,2013-03-08 15:15:00,
2013-03-08 10:20:00,33.2,26.4,29.96,West,271,1.0,10.0,76,0.00,CLR,,0.06,WeatherDisplay:10.37,2013-03-08 15:20:00,
2013-03-08 10:25:00,33.4,26.6,29.96,NW,313,0.0,6.0,76,0.00,CLR,,0.06,WeatherDisplay:10.37,2013-03-08 15:25:00,
2013-03-08 10:30:00,33.9,27.2,29.96,NW,310,0.0,5.0,76,0.00,CLR,,0.06,WeatherDisplay:10.37,2013-03-08 15:30:00,
2013-03-08 10:35:00,34.3,26.9,29.96,WNW,296,0.0,9.0,74,0.00,CLR,,0.06,WeatherDisplay:10.37,2013-03-08 15:35:00,
2013-03-08 10:45:00,35.0,26.9,29.97,NNW,332,0.0,7.0,72,0.00,CLR,,0.06,WeatherDisplay:10.37,2013-03-08 15:45:00,
2013-03-08 10:50:00,35.0,26.5,29.97,North,354,1.0,8.0,71,0.00,CLR,,0.06,WeatherDisplay:10.37,2013-03-08 15:50:00,
2013-03-08 11:00:00,35.2,26.4,29.97,North,352,0.0,6.0,70,0.00,CLR,,0.06,WeatherDisplay:10.37,2013-03-08 16:00:00,
2013-03-08 11:05:00,35.2,26.4,29.97,NNW,339,0.0,0.0,70,0.00,CLR,,0.06,WeatherDisplay:10.37,2013-03-08 16:05:00,
2013-03-08 11:10:00,35.1,26.3,29.97,NW,325,0.0,10.0,70,0.00,CLR,,0.06,WeatherDisplay:10.37,2013-03-08 16:10:00,
2013-03-08 11:20:00,35.4,26.6,29.98,WNW,291,1.0,7.0,70,0.00,CLR,,0.06,WeatherDisplay:10.37,2013-03-08 16:20:00,
2013-03-08 11:30:00,35.5,26.3,29.97,NNW,333,3.0,9.0,69,0.00,CLR,,0.06,WeatherDisplay:10.37,2013-03-08 16:30:00,
2013-03-08 11:40:00,35.9,26.3,29.97,NNW,328,5.0,10.0,68,0.00,CLR,,0.06,WeatherDisplay:10.37,2013-03-08 16:40:00,
2013-03-08 11:50:00,36.2,25.9,29.97,WNW,300,0.0,10.0,66,0.00,CLR,,0.06,WeatherDisplay:10.37,2013-03-08 16:50:00,
2013-03-08 12:00:00,36.8,25.8,29.98,NNW,347,5.0,14.0,64,0.00,CLR,,0.06,WeatherDisplay:10.37,2013-03-08 17:00:00,
2013-03-08 12:04:00,36.8,25.0,29.98,NNW,331,5.0,11.0,62,0.00,CLR,,0.06,WeatherDisplay:10.37,2013-03-08 17:04:00,
2013-03-08 12:10:00,36.7,24.9,29.98,NW,315,5.0,8.0,62,0.00,CLR,,0.06,WeatherDisplay:10.37,2013-03-08 17:10:00,
2013-03-08 12:20:00,36.9,24.3,29.99,NNW,348,7.0,14.0,60,0.00,CLR,,0.06,WeatherDisplay:10.37,2013-03-08 17:20:00,
2013-03-08 12:30:00,36.8,24.2,29.98,NNW,340,0.0,13.0,60,0.00,CLR,,0.06,WeatherDisplay:10.37,2013-03-08 17:30:00,
2013-03-08 12:40:00,36.9,23.9,29.98,NNW,339,3.0,9.0,59,0.00,CLR,,0.06,WeatherDisplay:10.37,2013-03-08 17:40:00,
2013-03-08 12:50:00,36.9,23.5,29.98,NNW,330,0.0,7.0,58,0.00,CLR,,0.06,WeatherDisplay:10.37,2013-03-08 17:50:00,
2013-03-08 12:59:00,36.8,23.0,29.98,North,0,2.0,7.0,57,0.00,CLR,,0.06,WeatherDisplay:10.37,2013-03-08 17:59:00,
2013-03-08 13:04:00,36.8,23.0,29.99,North,350,1.0,9.0,57,0.00,CLR,,0.06,WeatherDisplay:10.37,2013-03-08 18:04:00,
2013-03-08 13:10:00,36.7,22.5,29.98,NW,321,6.0,12.0,56,0.00,CLR,,0.06,WeatherDisplay:10.37,2013-03-08 18:10:00,
2013-03-08 13:20:00,37.0,22.7,29.99,NNW,329,2.0,12.0,56,0.00,CLR,,0.06,WeatherDisplay:10.37,2013-03-08 18:20:00,
2013-03-08 13:30:00,37.2,22.5,29.99,NW,325,1.0,12.0,55,0.00,CLR,,0.06,WeatherDisplay:10.37,2013-03-08 18:30:00,
2013-03-08 13:40:00,37.4,22.2,29.98,NW,312,6.0,12.0,54,0.00,CLR,,0.06,WeatherDisplay:10.37,2013-03-08 18:40:00,
2013-03-08 13:50:00,37.6,22.0,29.98,NW,312,2.0,12.0,53,0.00,CLR,,0.06,WeatherDisplay:10.37,2013-03-08 18:50:00,
2013-03-08 14:00:00,37.8,22.2,29.99,NW,323,0.0,6.0,53,0.00,CLR,,0.06,WeatherDisplay:10.37,2013-03-08 19:00:00,
2013-03-08 14:10:00,38.1,21.5,30.00,North,5,5.0,10.0,51,0.00,CLR,,0.06,WeatherDisplay:10.37,2013-03-08 19:10:00,
2013-03-08 14:20:00,38.3,21.7,29.99,North,350,0.0,7.0,51,0.00,CLR,,0.06,WeatherDisplay:10.37,2013-03-08 19:20:00,
2013-03-08 14:30:00,38.2,20.7,30.00,NW,318,1.0,7.0,49,0.00,CLR,,0.06,WeatherDisplay:10.37,2013-03-08 19:30:00,
2013-03-08 14:40:00,38.4,20.8,30.00,NNW,333,0.0,7.0,49,0.00,CLR,,0.06,WeatherDisplay:10.37,2013-03-08 19:40:00,
2013-03-08 14:50:00,38.6,20.6,30.00,North,360,0.0,12.0,48,0.00,CLR,,0.06,WeatherDisplay:10.37,2013-03-08 19:50:00,
2013-03-08 14:55:00,38.6,20.6,30.00,NNW,341,1.0,6.0,48,0.00,CLR,,0.06,WeatherDisplay:10.37,2013-03-08 19:55:00,
2013-03-08 15:04:00,38.6,20.6,30.01,NNE,17,0.0,8.0,48,0.00,CLR,,0.06,WeatherDisplay:10.37,2013-03-08 20:04:00,
2013-03-08 15:10:00,38.7,20.7,30.01,NNE,25,0.0,0.0,48,0.00,CLR,,0.06,WeatherDisplay:10.37,2013-03-08 20:10:00,
2013-03-08 15:20:00,38.8,20.7,30.01,NNE,31,0.0,9.0,48,0.00,CLR,,0.06,WeatherDisplay:10.37,2013-03-08 20:20:00,
2013-03-08 15:25:00,38.7,20.7,30.01,North,3,0.0,6.0,48,0.00,CLR,,0.06,WeatherDisplay:10.37,2013-03-08 20:25:00,
2013-03-08 15:29:00,38.6,20.1,30.01,NW,308,0.0,12.0,47,0.00,CLR,,0.06,WeatherDisplay:10.37,2013-03-08 20:29:00,
2013-03-08 15:40:00,38.6,20.1,30.02,WNW,283,0.0,0.0,47,0.00,CLR,,0.06,WeatherDisplay:10.37,2013-03-08 20:40:00,
2013-03-08 15:50:00,38.6,20.1,30.03,WNW,290,1.0,10.0,47,0.00,CLR,,0.06,WeatherDisplay:10.37,2013-03-08 20:50:00,
2013-03-08 15:55:00,38.6,20.0,30.03,NW,325,0.0,10.0,47,0.00,CLR,,0.06,WeatherDisplay:10.37,2013-03-08 20:55:00,
2013-03-08 16:04:00,38.5,20.0,30.02,NW,314,2.0,15.0,47,0.00,CLR,,0.06,WeatherDisplay:10.37,2013-03-08 21:04:00,
2013-03-08 16:09:00,38.5,20.0,30.02,West,270,1.0,8.0,47,0.00,CLR,,0.06,WeatherDisplay:10.37,2013-03-08 21:09:00,
2013-03-08 16:20:00,38.6,20.1,30.03,West,263,0.0,0.0,47,0.00,CLR,,0.06,WeatherDisplay:10.37,2013-03-08 21:20:00,
2013-03-08 16:29:00,38.8,20.3,30.04,WNW,302,0.0,8.0,47,0.00,CLR,,0.06,WeatherDisplay:10.37,2013-03-08 21:29:00,
2013-03-08 16:40:00,39.1,20.0,30.04,NNW,331,0.0,0.0,46,0.00,CLR,,0.06,WeatherDisplay:10.37,2013-03-08 21:40:00,
2013-03-08 16:49:00,39.1,20.0,30.05,NNW,337,1.0,5.0,46,0.00,CLR,,0.06,WeatherDisplay:10.37,2013-03-08 21:49:00,
2013-03-08 16:59:00,39.0,20.0,30.05,NW,306,0.0,9.0,46,0.00,CLR,,0.06,WeatherDisplay:10.37,2013-03-08 21:59:00,
2013-03-08 17:04:00,39.1,20.0,30.05,WNW,299,0.0,6.0,46,0.00,CLR,,0.06,WeatherDisplay:10.37,2013-03-08 22:04:00,
2013-03-08 17:09:00,39.1,20.5,30.05,WNW,296,0.0,9.0,47,0.00,CLR,,0.06,WeatherDisplay:10.37,2013-03-08 22:09:00,
2013-03-08 17:19:00,39.0,20.5,30.06,NNW,332,0.0,3.0,47,0.00,CLR,,0.06,WeatherDisplay:10.37,2013-03-08 22:19:00,
2013-03-08 17:24:00,38.9,20.4,30.06,NNW,342,1.0,6.0,47,0.00,CLR,,0.06,WeatherDisplay:10.37,2013-03-08 22:24:00,
2013-03-08 17:29:00,38.9,20.4,30.06,West,274,0.0,10.0,47,0.00,CLR,,0.06,WeatherDisplay:10.37,2013-03-08 22:29:00,
2013-03-08 17:39:00,38.8,20.3,30.06,NW,307,0.0,5.0,47,0.00,CLR,,0.06,WeatherDisplay:10.37,2013-03-08 22:39:00,
2013-03-08 17:49:00,38.9,20.3,30.07,WNW,301,2.0,14.0,47,0.00,CLR,,0.06,WeatherDisplay:10.37,2013-03-08 22:49:00,
2013-03-08 17:59:00,38.9,20.8,30.07,WNW,293,0.0,6.0,48,0.00,CLR,,0.06,WeatherDisplay:10.37,2013-03-08 22:59:00,
2013-03-08 18:04:00,38.8,20.7,30.08,West,280,0.0,0.0,48,0.00,CLR,,0.06,WeatherDisplay:10.37,2013-03-08 23:04:00,
2013-03-08 18:10:00,38.8,20.7,30.08,West,277,0.0,0.0,48,0.00,CLR,,0.06,WeatherDisplay:10.37,2013-03-08 23:10:00,
2013-03-08 18:19:00,38.8,20.2,30.08,NW,310,0.0,0.0,47,0.00,CLR,,0.06,WeatherDisplay:10.37,2013-03-08 23:19:00,
2013-03-08 18:29:00,38.7,20.2,30.08,West,277,3.0,17.0,47,0.00,CLR,,0.06,WeatherDisplay:10.37,2013-03-08 23:29:00,
2013-03-08 18:39:00,38.6,20.0,30.09,West,278,0.0,6.0,47,0.00,CLR,,0.06,WeatherDisplay:10.37,2013-03-08 23:39:00,
2013-03-08 18:49:00,38.4,19.9,30.09,NW,311,3.0,10.0,47,0.00,CLR,,0.06,WeatherDisplay:10.37,2013-03-08 23:49:00,
2013-03-08 18:59:00,38.3,19.3,30.10,NW,314,2.0,12.0,46,0.00,CLR,,0.06,WeatherDisplay:10.37,2013-03-08 23:59:00,
2013-03-08 19:04:00,38.3,19.3,30.10,NW,309,0.0,7.0,46,0.00,CLR,,0.06,WeatherDisplay:10.37,2013-03-09 00:04:00,
2013-03-08 19:09:00,38.3,19.3,30.10,West,277,1.0,10.0,46,0.00,CLR,,0.06,WeatherDisplay:10.37,2013-03-09 00:09:00,
2013-03-08 19:19:00,38.1,18.7,30.11,West,281,1.0,9.0,45,0.00,CLR,,0.06,WeatherDisplay:10.37,2013-03-09 00:19:00,
2013-03-08 19:24:00,38.1,18.6,30.11,NW,311,0.0,6.0,45,0.00,CLR,,0.06,WeatherDisplay:10.37,2013-03-09 00:24:00,
2013-03-08 19:29:00,38.1,18.6,30.11,NW,312,0.0,0.0,45,0.00,CLR,,0.06,WeatherDisplay:10.37,2013-03-09 00:29:00,
2013-03-08 19:39:00,37.9,18.4,30.11,NNW,330,0.0,6.0,45,0.00,CLR,,0.06,WeatherDisplay:10.37,2013-03-09 00:39:00,
2013-03-08 19:49:00,37.9,17.9,30.12,NNW,330,0.0,12.0,44,0.00,CLR,,0.06,WeatherDisplay:10.37,2013-03-09 00:49:00,
2013-03-08 19:54:00,37.8,18.4,30.12,NNW,337,0.0,0.0,45,0.00,CLR,,0.06,WeatherDisplay:10.37,2013-03-09 00:54:00,
2013-03-08 19:59:00,37.7,17.7,30.11,NW,318,2.0,12.0,44,0.00,CLR,,0.06,WeatherDisplay:10.37,2013-03-09 00:59:00,
2013-03-08 20:04:00,37.8,17.8,30.12,WNW,294,0.0,16.0,44,0.00,CLR,,0.06,WeatherDisplay:10.37,2013-03-09 01:04:00,
2013-03-08 20:09:00,37.7,17.7,30.12,WNW,284,0.0,8.0,44,0.00,CLR,,0.06,WeatherDisplay:10.37,2013-03-09 01:09:00,
2013-03-08 20:19:00,37.7,17.7,30.12,NW,315,0.0,6.0,44,0.00,CLR,,0.06,WeatherDisplay:10.37,2013-03-09 01:19:00,
2013-03-08 20:29:00,37.6,17.6,30.12,WNW,303,1.0,6.0,44,0.00,CLR,,0.06,WeatherDisplay:10.37,2013-03-09 01:29:00,
2013-03-08 20:35:00,37.5,17.5,30.13,North,353,1.0,0.0,44,0.00,CLR,,0.06,WeatherDisplay:10.37,2013-03-09 01:35:00,
2013-03-08 20:44:00,37.4,17.4,30.13,WNW,286,0.0,7.0,44,0.00,CLR,,0.06,WeatherDisplay:10.37,2013-03-09 01:44:00,
2013-03-08 20:49:00,37.2,17.8,30.13,West,267,0.0,7.0,45,0.00,CLR,,0.06,WeatherDisplay:10.37,2013-03-09 01:49:00,
2013-03-08 20:59:00,36.9,17.5,30.13,WNW,293,0.0,0.0,45,0.00,CLR,,0.06,WeatherDisplay:10.37,2013-03-09 01:59:00,
2013-03-08 21:04:00,36.9,17.5,30.14,West,273,1.0,10.0,45,0.00,CLR,,0.06,WeatherDisplay:10.37,2013-03-09 02:04:00,
2013-03-08 21:09:00,36.9,17.5,30.13,WSW,247,1.0,6.0,45,0.00,CLR,,0.06,WeatherDisplay:10.37,2013-03-09 02:09:00,
2013-03-08 21:19:00,37.0,17.1,30.14,NW,308,1.0,10.0,44,0.00,CLR,,0.06,WeatherDisplay:10.37,2013-03-09 02:19:00,
2013-03-08 21:29:00,37.2,17.2,30.14,WNW,298,0.0,6.0,44,0.00,CLR,,0.06,WeatherDisplay:10.37,2013-03-09 02:29:00,
2013-03-08 21:34:00,37.2,17.2,30.14,NW,307,1.0,11.0,44,0.00,CLR,,0.06,WeatherDisplay:10.37,2013-03-09 02:34:00,
2013-03-08 21:39:00,37.1,17.2,30.14,NW,318,0.0,7.0,44,0.00,CLR,,0.06,WeatherDisplay:10.37,2013-03-09 02:39:00,
2013-03-08 21:49:00,37.0,17.1,30.14,WNW,302,0.0,8.0,44,0.00,CLR,,0.06,WeatherDisplay:10.37,2013-03-09 02:49:00,
2013-03-08 21:59:00,36.9,17.0,30.14,WNW,300,0.0,10.0,44,0.00,CLR,,0.06,WeatherDisplay:10.37,2013-03-09 02:59:00,
2013-03-08 22:04:00,36.9,17.5,30.14,West,273,0.0,9.0,45,0.00,CLR,,0.06,WeatherDisplay:10.37,2013-03-09 03:04:00,
2013-03-08 22:09:00,36.8,17.4,30.14,West,260,0.0,0.0,45,0.00,CLR,,0.06,WeatherDisplay:10.37,2013-03-09 03:09:00,
2013-03-08 22:19:00,36.7,17.3,30.14,WNW,282,0.0,13.0,45,0.00,CLR,,0.06,WeatherDisplay:10.37,2013-03-09 03:19:00,
2013-03-08 22:29:00,36.6,17.2,30.14,West,264,1.0,8.0,45,0.00,CLR,,0.06,WeatherDisplay:10.37,2013-03-09 03:29:00,
2013-03-08 22:39:00,36.5,17.6,30.14,WNW,300,0.0,0.0,46,0.00,CLR,,0.06,WeatherDisplay:10.37,2013-03-09 03:39:00,
2013-03-08 22:49:00,36.3,17.5,30.14,West,271,0.0,7.0,46,0.00,CLR,,0.06,WeatherDisplay:10.37,2013-03-09 03:49:00,
2013-03-08 22:59:00,36.1,17.3,30.14,NNW,339,0.0,0.0,46,0.00,CLR,,0.06,WeatherDisplay:10.37,2013-03-09 03:59:00,
2013-03-08 23:04:00,36.0,17.2,30.14,NW,317,0.0,8.0,46,0.00,CLR,,0.06,WeatherDisplay:10.37,2013-03-09 04:04:00,
2013-03-08 23:09:00,36.0,17.2,30.14,WNW,289,0.0,5.0,46,0.00,CLR,,0.06,WeatherDisplay:10.37,2013-03-09 04:09:00,
2013-03-08 23:19:00,35.9,17.1,30.14,WNW,294,0.0,0.0,46,0.00,CLR,,0.06,WeatherDisplay:10.37,2013-03-09 04:19:00,
2013-03-08 23:29:00,35.9,17.6,30.14,NNW,329,0.0,6.0,47,0.00,CLR,,0.06,WeatherDisplay:10.37,2013-03-09 04:29:00,
2013-03-08 23:39:00,35.7,17.4,30.14,West,281,0.0,0.0,47,0.00,CLR,,0.06,WeatherDisplay:10.37,2013-03-09 04:39:00,
2013-03-08 23:49:00,35.4,17.6,30.14,West,281,0.0,0.0,48,0.00,CLR,,0.06,WeatherDisplay:10.37,2013-03-09 04:49:00,
2013-03-08 23:59:00,35.1,17.3,30.15,West,281,0.0,0.0,48,0.00,RA,,0.00,WeatherDisplay:10.37,2013-03-09 04:59:00,